sat.trackr.live / text

‹ back to catalog

STARLINK-35220

NORAD 65661 · 2025-211K

PAYLOAD ACTIVE UNKNOWN

§ Identity

Operator
Country
US
Launch date
2025-09-19
Launch site
AFWTR
Launch vehicle
Mass (kg)
RCS (m²)

Purposes: comms

External: N2YO · Heavens-Above · Gunter

§ Orbital elements

Epoch: 2026-09-20T13:25:18.457824Z

Period
93.91 min
Inclination
97.2839°
Eccentricity
0.0002471
Mean motion
15.33442836 rev/d
Perigee alt
463.9 km
Apogee alt
467.2 km
Semi-major
6,843.7 km
B*
3.5185e-4
RAAN
303.8065°
Arg perigee
84.9667°
Mean anomaly
275.1858°
Rev number
5,653

§ Raw data

STARLINK-352201 65661U 25211K   26263.55924141  .00011301  00000+0  35185-3 0  99952 65661  97.2839 303.8065 0002471  84.9667 275.1858 15.33442836 56537

JSON: /api/v1/satellites/65661 · /tle

For live sub-satellite position, see the globe view (requires WebGL).

§ Visibility from observer

Set your observer location to see the next 7 days of passes ≥ 10°. The values pass through the URL so the page stays shareable.

No JS? Fill the form by hand. The geolocation button needs JavaScript.